Regional Weather Roundup
Issued by NWS

Home | Current Version | Previous Version | Graphics & Text | Print | Product List | Glossary On
Versions: 1 2 3 4 5 6 7 8 9 10 11 12 13 14 15 16 17 18 19 20 21 22 23 24 25 26 27 28 29 30 31 32 33 34 35 36 37 38 39 40 41 42 43 44 45 46 47 48 49 50
000
ASUS43 KBIS 010420
RWRND

NORTH DAKOTA REGIONAL WEATHER ROUNDUP
NATIONAL WEATHER SERVICE BISMARCK ND
1100 PM CDT SUN AUG 31 2014

NOTE: "FAIR" INDICATES FEW OR NO CLOUDS BELOW 12,000 FEET WITH NO
SIGNIFICANT WEATHER AND/OR OBSTRUCTIONS TO VISIBILITY.


NDZ001>003-009>011-017-010500-
NORTHWEST NORTH DAKOTA

CITY           SKY/WX    TMP DP  RH WIND       PRES   REMARKS
WILLISTON      CLEAR     56  52  86 CALM      29.76R
MINOT          CLOUDY    57  53  86 NW8       29.70S
MINOT AFB      CLOUDY    56  56  99 W6        29.70S
$$

NDZ018>021-031>035-040>046-010500-
SOUTHWEST NORTH DAKOTA

CITY           SKY/WX    TMP DP  RH WIND       PRES   REMARKS
BISMARCK       RAIN      61  56  83 W18G29    29.75R
DICKINSON      PTCLDY    55  49  80 W5        29.78S
GARRISON         N/A     57  55  93 W6        29.73S
HETTINGER ARPT CLOUDY    53  49  86 NW5       29.81R
$$

NDZ004>008-012>016-024-026-027-054-010500-
NORTHEAST NORTH DAKOTA

CITY           SKY/WX    TMP DP  RH WIND       PRES   REMARKS
GRAND FORKS    PTCLDY    60  56  86 NW7       29.62R
GRND FRKS AFB  PTCLDY    58  58  99 NW6       29.64R
DEVILS LAKE    CLEAR     55  48  76 NW5       29.66S
$$

NDZ022-023-025-028>030-036>039-047>053-010500-
SOUTHEAST NORTH DAKOTA

CITY           SKY/WX    TMP DP  RH WIND       PRES   REMARKS
FARGO          MOCLDY    60  58  92 S3        29.64R
JAMESTOWN      CLEAR     59  55  87 NW6       29.69R
$$



USA.gov is the U.S. government's official web portal to all federal, state and local government web resources and services.